Location: Llannon
(52.2833°N, 4.1833°W)
Time: 04:40:00
(UTC+00:00)

Daily predictions for brighter satellites

Satellite Brightness Start Highest point End
(mag) Time Altitude Azimuth Time Altitude Azimuth Time Altitude Azimuth
Cosmos 2263 Rocket 4.0 03:57:50 26° E 03:57:50 26° E 04:02:08 10° NE
Cosmos 2297 Rocket 4.3 04:25:05 18° NNE 04:25:05 18° NNE 04:26:35 10° NNE
Cosmos 2227 Rocket 4.2 04:30:04 19° NNE 04:30:04 19° NNE 04:31:45 10° NNE
ATLAS CENTAUR R/B 3.7 04:39:25 21° ENE 04:39:25 21° ENE 04:41:28 10° E
Meteor 1-18 Rocket 4.4 04:49:55 68° E 04:49:55 68° E 04:55:25 10° SSE
ATLAS 5 CENTAUR R/B 3.6 04:52:20 25° NNE 04:52:20 25° NNE 04:55:01 10° NE
Cosmos 2082 Rocket 4.3 04:54:06 14° N 04:55:55 16° NNE 04:59:20 10° ENE
Cosmos 2195 Rocket 4.4 04:54:30 51° N 04:56:18 85° E 05:02:38 10° S
Geosat 4.1 05:00:37 10° SE 05:05:38 73° NE 05:05:42 73° NE
Cosmos 1092 Rocket 4.0 05:09:36 58° SSW 05:09:36 58° SSW 05:14:37 10° S
Cosmos 724 4.5 05:16:01 55° NNW 05:16:01 55° NNW 05:21:25 10° NE
Meteor 1-25 Rocket 4.1 05:12:54 10° SSW 05:18:34 89° WNW 05:24:20 10° NNE
BREEZE-M DEB (TANK) 4.0 05:17:39 37° SW 05:19:56 54° S 05:23:24 10° E
Cosmos 1346 Rocket 3.6 05:16:58 10° S 05:20:42 49° E 05:24:30 10° NNE
Cosmos 1420 Rocket 3.8 05:21:02 77° NNW 05:21:02 77° NNW 05:26:03 10° NNE
COSMO-SKYMED 1 3.0 05:21:20 10° SSE 05:24:39 52° S 05:24:39 52° S
Cosmos 44 4.1 05:24:43 19° S 05:27:42 45° ESE 05:32:00 10° NE
USA 234 3.7 05:22:07 10° ENE 05:28:34 58° SE 05:33:33 18° SW
Meteor 2-4 Rocket 3.8 05:26:11 17° N 05:30:27 71° ENE 05:35:49 10° SSE
GEOS 3 Rocket 3.5 05:28:06 10° SSE 05:33:09 60° SW 05:33:30 59° WSW
ALOS 2.9 05:30:34 10° NNE 05:35:11 56° E 05:39:46 10° S
Cosmos 1741 Rocket 4.3 05:36:24 46° SW 05:36:24 46° SW 05:40:40 10° S
Cosmos 371 Rocket 4.4 05:31:37 10° S 05:36:12 45° ESE 05:40:51 10° NE
Cosmos 2221 Rocket 3.4 05:36:22 79° NW 05:36:33 82° W 05:40:58 10° S
Meteor 1-14 Rocket 4.3 05:31:04 10° S 05:37:03 90° W 05:43:06 10° NNE
Cosmos 1733 Rocket 4.4 05:33:32 10° SSE 05:37:34 40° E 05:41:37 10° NNE
Meteor 1-19 Rocket 4.1 05:38:20 37° NNW 05:40:30 68° W 05:46:06 10° S
Cosmos 2263 Rocket 2.0 05:39:36 47° WSW 05:41:07 66° NW 05:46:41 10° NNE
Cosmos 1428 Rocket 4.4 05:37:53 15° NNW 05:43:08 62° W 05:49:20 10° S
Cosmos 2266 Rocket 4.4 05:41:52 10° N 05:48:05 64° ENE 05:54:09 10° SSE
Okean O Rocket 2.5 05:43:48 10° NNE 05:48:06 50° E 05:52:23 10° S
Cosmos 1869 Rocket 4.1 05:52:18 39° NNW 05:52:18 39° NNW 05:55:20 10° N
Cosmos 1452 Rocket 3.5 05:50:53 37° WSW 05:52:48 58° WNW 05:58:04 10° NNE
FENGYUN 3A 3.8 05:48:48 10° NNE 05:54:14 76° ESE 05:59:36 10° S
CZ-4B DEB 4.2 05:50:18 10° NNE 05:55:53 83° ESE 06:01:27 10° SSW
Cosmos 1833 Rocket 4.1 05:51:49 14° NNW 05:56:02 33° NE 06:01:07 10° ESE
Meteor 1-20 Rocket 4.4 05:52:35 10° SW 05:58:15 49° WNW 06:03:54 10° N
DMSP B5D1-3 4.4 05:55:10 10° SSE 06:00:20 84° WSW 06:05:05 13° NNW
METEOR-M 4.1 05:55:06 10° NNE 06:00:29 86° ESE 06:05:51 10° SSW
Cosmos 2026 Rocket 4.3 06:00:08 24° NW 06:03:18 41° W 06:09:05 10° SSW
Cosmos 1674 Rocket 3.6 05:59:58 15° N 06:03:35 79° E 06:07:54 10° SSE
Cosmos 968 Rocket 4.4 06:01:40 13° NNW 06:06:06 45° ENE 06:11:00 10° SE
CZ-2C R/B 4.1 06:02:35 10° N 06:03:40 15° NNW 06:03:40 15° NNW
Cosmos 2297 Rocket 3.9 06:06:53 15° NNW 06:06:54 15° NNW 06:10:13 10° NNE
Cosmos 1484 Rocket 3.6 06:03:29 10° N 06:06:06 34° NNW 06:06:06 34° NNW
NOAA 6 4.2 06:04:16 10° NNE 06:09:25 76° ESE 06:14:33 10° S
Cosmos 2227 Rocket 3.9 06:11:54 15° NNW 06:12:06 15° NNW 06:15:24 10° NNE
Cosmos 1844 Rocket 3.2 06:06:57 10° SSW 06:12:25 60° ESE 06:17:54 10° NE
COSMOS 2406 3.5 06:11:11 16° NNW 06:15:47 67° NE 06:21:26 10° SE
ATLAS CENTAUR R/B 1.2 06:15:37 34° NW 06:17:23 82° SW 06:21:21 10° SE
SJ-12 4.0 06:14:08 10° N 06:18:09 50° WNW 06:22:07 10° SW
CZ-4B R/B 3.3 06:12:47 10° NNE 06:18:26 84° ESE 06:24:07 10° SSW
Cosmos 2279 Rocket 3.9 06:13:47 10° SSW 06:19:55 62° WNW 06:26:08 10° N
Cosmos 405 3.0 06:19:10 37° NW 06:20:17 56° W 06:23:45 10° S
Cosmos 1378 Rocket 3.6 06:16:02 10° N 06:20:30 86° E 06:24:57 10° S
NOSS 3-2 (A) 4.4 06:15:14 10° SSW 06:20:49 49° ESE 06:27:09 10° NE
Meteor 1-13 Rocket 4.2 06:20:47 10° NNW 06:26:14 60° W 06:31:43 10° S
Cosmos 304 Rocket 4.2 06:27:27 10° S 06:32:10 64° ESE 06:36:56 10° NNE
USA 238 DEB 4.1 06:26:00 10° SSW 06:32:36 65° SE 06:39:28 10° NE
USA 238 4.2 06:26:07 10° SSW 06:32:42 64° SE 06:39:35 10° NE
H-2A R/B 3.4 06:29:47 10° NNE 06:33:29 56° E 06:37:12 10° S
Cosmos 1634 Rocket 4.5 06:27:58 10° SW 06:33:33 34° WNW 06:39:08 10° N
Cosmos 1331 Rocket 3.9 06:28:26 10° SSW 06:33:35 74° WNW 06:38:49 10° NNE
CENTAUR R/B 4.4 06:29:47 10° S 06:35:10 34° ESE 06:41:20 10° NE
Okean 3 4.3 06:34:32 25° WNW 06:35:25 28° W 06:39:01 10° SSW
ATLAS 5 CENTAUR R/B 3.4 06:33:52 18° NW 06:36:18 24° N 06:40:49 10° ENE
CZ-2C R/B 4.1 06:31:55 10° SSE 06:36:39 69° ENE 06:41:26 10° N
Cosmos 1536 2.8 06:34:41 10° S 06:38:46 87° W 06:42:51 10° N
Cosmos 2082 Rocket 3.1 06:36:10 10° NNW 06:41:34 43° NE 06:46:56 10° ESE
SL-24 R/B 4.5 06:38:00 10° S 06:42:02 41° W 06:45:45 12° NNW
Cosmos 2292 Rocket 4.3 06:35:15 10° NNW 06:42:12 75° W 06:47:20 10° S
SL-23 DEB 3.8 06:40:43 16° WSW 06:43:03 61° SSE 06:46:42 10° E
Meteor 1-23 Rocket 4.2 06:37:35 10° NNW 06:43:24 77° W 06:49:08 10° S
Cosmos 1340 4.1 06:45:55 20° NW 06:45:55 20° NW 06:48:02 10° NNW
Cosmos 1110 Rocket 4.1 06:44:35 10° SW 06:49:39 52° WNW 06:54:44 10° NNE
ADEOS Rocket 3.1 06:45:02 10° S 06:51:45 74° WSW 06:57:48 10° NNW
PAYLOAD B 4.5 06:48:47 10° N 06:54:00 44° WNW 06:59:13 10° SW
Cosmos 1908 Rocket 3.6 06:50:41 10° S 06:55:09 87° W 06:59:39 10° N
Cosmos 1500 3.7 06:52:27 10° SW 06:56:01 36° WNW 06:59:36 10° N
Cosmos 332 Rocket 3.9 06:51:44 10° SW 06:56:32 53° WNW 07:01:22 10° NNE
Nadezhda 2 Rocket 4.4 06:50:52 10° N 06:57:03 87° W 07:03:10 10° S
Cosmos 1346 Rocket 4.1 06:54:58 12° WSW 06:57:23 19° WNW 07:00:14 10° NNW
IRIDIUM 104 4.4 06:53:30 10° N 06:58:39 59° W 07:03:45 10° SSW
Meteor 1-11 Rocket 3.8 06:54:30 10° SSW 07:00:14 61° WNW 07:06:08 10° N
SMAP 3.0 06:55:56 10° NNE 07:00:38 87° WNW 07:05:18 10° SSW
YAOGAN 6 4.1 06:58:12 10° NNE 07:01:45 42° E 07:05:18 10° S
Helios 1A Rocket 3.4 06:59:13 10° N 07:02:55 35° WNW 07:06:35 10° SW
Cosmos 1486 Rocket 4.3 06:59:48 10° NW 07:04:53 47° WSW 07:09:54 10° S
Okean 2 3.6 07:03:26 10° N 07:07:33 75° ENE 07:11:38 10° SSE
Cosmos 44 3.6 07:04:38 10° WSW 07:08:59 40° NW 07:13:11 10° NE
USA 234 3.3 07:05:15 10° ENE 07:11:46 74° NNW 07:18:17 10° WSW
ALOS 3.3 07:08:32 10° N 07:12:18 24° WNW 07:16:03 10° WSW
Cosmos 1733 Rocket 3.9 07:11:51 10° SW 07:15:30 26° WNW 07:19:12 10° N
SJ 16-02 3.9 07:14:33 10° NNE 07:15:41 11° NE 07:16:49 10° NE
Envisat 3.3 07:10:42 10° NNE 07:15:48 72° ESE 07:20:53 10° S
USA 81 4.4 07:11:13 10° NNW 07:16:13 45° W 07:21:12 10° SSW
Cosmos 371 Rocket 4.0 07:12:23 10° WSW 07:16:47 33° NW 07:21:13 10° NNE
Cosmos 1066 Rocket 4.4 07:14:54 10° NNW 07:20:14 48° W 07:25:26 10° SSW
ATLAS 3B R/B 3.6 07:16:07 10° SSW 07:22:34 53° SE 07:29:00 10° NE
NOSS 3-2 (C) 3.8 07:17:24 10° SW 07:23:17 75° SE 07:30:03 10° NE
Cosmos 2278 Rocket 3.1 07:18:00 10° S 07:23:31 54° ESE 07:29:02 10° NE
Okean O Rocket 2.6 07:20:39 10° N 07:24:13 24° WNW 07:27:46 10° WSW
Cosmos 1441 Rocket 3.2 07:21:01 10° SSW 07:24:58 79° WNW 07:28:55 10° N
Meteor 1-4 Rocket 3.1 07:21:51 10° N 07:25:35 64° ENE 07:29:13 10° SSE
Cosmos 2263 Rocket 3.5 07:22:04 10° W 07:26:08 20° NNW 07:30:14 10° NNE
Cosmos 1975 3.1 07:28:32 10° S 07:32:30 71° E 07:36:30 10° NNE
Cosmos 1378 3.1 07:30:54 10° NNW 07:34:39 70° W 07:38:22 10° S
NOAA 12 4.1 07:31:09 10° NNE 07:36:25 75° WNW 07:41:37 10° SSW
Iridium 4 Rocket 3.5 07:32:30 10° N 07:36:58 68° E 07:41:10 10° SSE
Cosmos 1809 Rocket 4.5 07:31:39 10° NNW 07:37:48 76° W 07:43:57 10° S
SAR-Lupe-2 4.3 07:35:57 10° SSW 07:39:17 36° W 07:42:39 10° NNW
Cosmos 1666 3.5 07:36:41 10° SW 07:40:02 29° WNW 07:43:24 10° N
Cosmos 1833 Rocket 2.9 07:34:46 10° NW 07:40:22 62° WSW 07:45:55 10° SSE
Cosmos 1818 4.3 07:36:45 10° NW 07:42:04 48° NE 07:47:20 10° ESE
